Skip to main content

CRUISE INFORMATION RECORD AND DATA
 
NODC Cruise 90-52559 Information
WOD CRUISE REFERENCE # 90052559
DATA:
in WOD format 90052559_XBT.dat
90052559_OSD.dat
in 'csv' format 90052559_XBT.csv
90052559_OSD.csv
METADATA:
COUNTRY UNION OF SOVIET SOCIALIST REPUBLICS (90)
NODC ACCESSION NUMBER (OSD) 1025
NODC ACCESSION NUMBER (XBT) 7900206
SHIP NAME (1025) AKADEMIK KURCHATOV (UBLF)
INSTITUTE (1025) P.P.SHIRSHOV INSTITUTE OF OCEANOLOGY OF THE RUSSIAN ACADEMY OF SCIENCES; IO RAS
INSTITUTE (7900206) P.P.SHIRSHOV INSTITUTE OF OCEANOLOGY OF THE RUSSIAN ACADEMY OF SCIENCES; IO RAS
PROJECT (7900206) IDOE/POLYMODE
ORIGINATORS CRUISE CODE (XBT) 26
SUBMITTING INFORMATION (1025)  
SUBMITTING INSTITUTE P.P.SHIRSHOV INSTITUTE OF OCEANOLOGY OF THE RUSSIAN ACADEMY OF SCIENCES; IO RAS
SUBMITTING INVESTIGATOR GALERKIN; LEONID ISAAKOVICH
SUBMISSION DATE 4/25/2002
SUBMITTING INFORMATION (7900206)  
SUBMITTING INSTITUTE WOODS HOLE OCEANOGRAPHIC INSTITUTE (WHOI)
SUBMISSION DATE 7/2/1979
DATE OF FIRST CAST 2/ 2/1978
DATE OF LAST CAST 5/21/1978
TOTAL NUMBER OF CASTS 306
Temperature [t] PROFILES 306
Salinity [s] PROFILES 62
Oxygen [o] PROFILES 61
Nitrate [n] PROFILES 49
pH [h] PROFILES 61
UNIQUE CAST # LATITUDE LONGITUDE DATE TIME PROBE TYPE
9635324 30.313 -69.965 2/2/1978 14.333 OSD
9635325 29.633 -71.317 2/3/1978 15.450 OSD
9635326 28.040 -69.318 2/5/1978 16.917 OSD
2530443 27.867 -71.283 2/17/1978 3.717 XBT
2530453 28.150 -71.283 2/17/1978 4.917 XBT
2530482 28.717 -71.283 2/17/1978 8.717 XBT
2530489 29.000 -71.283 2/17/1978 9.867 XBT
9635327 29.062 -71.292 2/17/1978 12.617 OSD
2530526 29.283 -71.283 2/17/1978 14.500 XBT
2530541 29.567 -71.283 2/17/1978 16.250 XBT
2530559 29.850 -71.283 2/17/1978 18.800 XBT
2530733 30.417 -71.283 2/18/1978 19.067 XBT
2530736 30.417 -70.967 2/18/1978 20.250 XBT
2530744 30.417 -70.650 2/18/1978 21.500 XBT
2530747 30.133 -70.650 2/18/1978 22.617 XBT
2530780 29.850 -70.650 2/19/1978 1.450 XBT
2530788 29.567 -70.650 2/19/1978 3.050 XBT
2530871 29.283 -70.650 2/19/1978 17.667 XBT
2530975 28.717 -70.650 2/20/1978 12.017 XBT
2530985 28.433 -70.650 2/20/1978 13.133 XBT
9635328 28.433 -70.643 2/20/1978 14.417 OSD
2531014 27.867 -70.650 2/20/1978 18.750 XBT
2531028 27.583 -70.650 2/20/1978 21.417 XBT
2531037 27.583 -70.317 2/20/1978 22.833 XBT
2531041 27.583 -70.000 2/20/1978 23.983 XBT
9635329 27.867 -70.000 2/21/1978 3.583 OSD
2531081 28.150 -70.000 2/21/1978 5.750 XBT
2531111 29.000 -70.000 2/21/1978 10.650 XBT
9635330 28.998 -69.955 2/21/1978 13.017 OSD
2531143 29.283 -70.000 2/21/1978 15.333 XBT
2531150 29.567 -70.000 2/21/1978 16.683 XBT
2531188 29.850 -70.000 2/21/1978 19.333 XBT
2531189 30.133 -70.000 2/21/1978 20.717 XBT
9635331 30.133 -70.000 2/21/1978 22.617 OSD
2531278 30.417 -70.000 2/22/1978 10.800 XBT
2531281 30.417 -69.683 2/22/1978 11.800 XBT
2531305 30.417 -69.350 2/22/1978 13.017 XBT
2531479 29.850 -70.000 2/24/1978 0.867 XBT
2531497 30.133 -69.350 2/24/1978 5.400 XBT
2531552 29.567 -69.350 2/24/1978 16.167 XBT
2531560 29.283 -69.350 2/24/1978 17.333 XBT
2531563 29.000 -69.350 2/24/1978 18.667 XBT
2531575 28.717 -69.350 2/24/1978 19.867 XBT
2531588 28.433 -69.350 2/24/1978 22.417 XBT
2531589 28.150 -69.350 2/24/1978 23.667 XBT
2531642 28.717 -68.717 2/25/1978 8.650 XBT
2531649 29.000 -68.717 2/25/1978 9.700 XBT
2531653 29.283 -68.717 2/25/1978 10.950 XBT
2531678 29.567 -68.717 2/25/1978 13.917 XBT
2531693 29.850 -68.717 2/25/1978 16.333 XBT
2531701 30.133 -68.717 2/25/1978 17.433 XBT
2531705 30.417 -68.717 2/25/1978 18.500 XBT
9635332 30.165 -68.703 3/1/1978 17.967 OSD
9635333 29.568 -68.725 3/2/1978 7.250 OSD
2532596 28.150 -68.717 3/3/1978 3.750 XBT
2532604 27.867 -68.717 3/3/1978 5.000 XBT
2532613 27.583 -68.717 3/3/1978 7.700 XBT
2532617 27.583 -69.033 3/3/1978 8.933 XBT
2532629 27.583 -69.350 3/3/1978 10.100 XBT
2532633 27.867 -69.350 3/3/1978 11.467 XBT
9635334 28.433 -69.357 3/4/1978 1.633 OSD
9635335 29.567 -69.343 3/5/1978 17.583 OSD
9635336 29.658 -70.000 3/6/1978 14.750 OSD
2534094 30.133 -71.283 3/12/1978 10.383 XBT
2534123 29.850 -71.283 3/12/1978 13.083 XBT
2534169 29.000 -71.283 3/12/1978 21.550 XBT
9635337 29.000 -71.300 3/12/1978 23.400 OSD
2534197 28.717 -71.283 3/13/1978 2.133 XBT
2534199 28.433 -71.283 3/13/1978 3.400 XBT
2534227 28.150 -71.283 3/13/1978 10.900 XBT
2534246 27.867 -71.283 3/13/1978 12.300 XBT
2534283 27.583 -71.283 3/13/1978 15.017 XBT
2534284 27.583 -70.967 3/13/1978 16.667 XBT
2534289 27.583 -70.650 3/13/1978 17.983 XBT
2534307 27.867 -70.650 3/13/1978 19.317 XBT
2534318 28.150 -70.650 3/13/1978 22.300 XBT
2534354 28.433 -70.650 3/14/1978 3.900 XBT
2534366 28.717 -70.650 3/14/1978 6.783 XBT
2534406 29.000 -70.650 3/14/1978 11.783 XBT
9635338 29.000 -70.633 3/14/1978 13.000 OSD
2534447 29.283 -70.650 3/14/1978 18.467 XBT
2534465 29.567 -70.650 3/14/1978 19.833 XBT
2534503 29.850 -70.650 3/15/1978 2.983 XBT
2534510 30.133 -70.650 3/15/1978 4.917 XBT
2534536 30.417 -70.650 3/15/1978 7.800 XBT
2534542 30.417 -70.317 3/15/1978 9.333 XBT
2534548 30.417 -70.000 3/15/1978 10.767 XBT
2534571 30.133 -70.000 3/15/1978 12.300 XBT
2534579 29.850 -70.000 3/15/1978 15.117 XBT
9635339 29.567 -70.000 3/15/1978 18.833 OSD
2534633 29.283 -70.000 3/15/1978 22.667 XBT
2534645 29.000 -70.000 3/16/1978 0.117 XBT
2534671 28.717 -70.000 3/16/1978 2.983 XBT
9635340 28.433 -70.000 3/16/1978 10.000 OSD
2534749 27.867 -70.000 3/16/1978 16.133 XBT
2534779 27.583 -70.000 3/16/1978 19.533 XBT
2534802 27.583 -69.350 3/16/1978 22.233 XBT
2534809 27.867 -69.350 3/16/1978 23.600 XBT
2534849 28.433 -69.350 3/17/1978 4.033 XBT
2534858 28.717 -69.350 3/17/1978 6.683 XBT
9635341 29.000 -62.350 3/17/1978 10.000 OSD
2534903 29.283 -69.350 3/17/1978 12.383 XBT
2534915 29.850 -69.350 3/17/1978 16.717 XBT
2534921 30.133 -69.350 3/17/1978 17.867 XBT
2534945 30.417 -69.350 3/17/1978 21.067 XBT
2534948 30.417 -69.033 3/17/1978 22.300 XBT
2534955 30.417 -68.717 3/17/1978 23.783 XBT
2534983 29.850 -68.717 3/18/1978 4.000 XBT
2534989 29.567 -68.717 3/18/1978 5.317 XBT
2535011 29.000 -68.717 3/18/1978 9.450 XBT
2535039 28.433 -68.717 3/18/1978 13.833 XBT
9635342 28.433 -68.717 3/18/1978 15.000 OSD
2535049 28.150 -68.717 3/18/1978 16.833 XBT
2535058 27.867 -68.717 3/18/1978 18.050 XBT
2535081 27.583 -68.717 3/18/1978 21.217 XBT
9635343 36.000 -72.367 3/20/1978 17.000 OSD
9635344 36.133 -72.450 3/20/1978 19.000 OSD
9635345 36.283 -72.567 3/20/1978 21.000 OSD
9635346 36.550 -72.800 3/21/1978 1.000 OSD
9635347 37.267 -73.367 3/21/1978 12.000 OSD
9635348 37.517 -73.600 3/21/1978 17.000 OSD
2536195 30.417 -71.283 3/29/1978 5.900 XBT
2536217 30.417 -70.650 3/29/1978 8.783 XBT
2536228 30.417 -70.000 3/29/1978 11.133 XBT
2536262 30.417 -69.350 3/29/1978 13.733 XBT
2536274 30.417 -68.717 3/29/1978 16.150 XBT
2536277 30.133 -68.717 3/29/1978 17.733 XBT
2536298 30.133 -69.350 3/29/1978 20.383 XBT
2536330 30.133 -70.650 3/30/1978 1.233 XBT
2536341 30.133 -71.283 3/30/1978 4.000 XBT
2536345 29.850 -71.283 3/30/1978 5.417 XBT
2536361 29.567 -71.283 3/30/1978 6.783 XBT
2536365 29.283 -71.283 3/30/1978 8.000 XBT
2536364 29.000 -71.283 3/30/1978 8.917 XBT
2536376 28.717 -71.267 3/30/1978 9.917 XBT
2536450 28.150 -71.283 3/30/1978 22.367 XBT
2536453 27.867 -71.283 3/30/1978 23.533 XBT
2536461 27.583 -71.283 3/31/1978 0.633 XBT
2536474 27.583 -70.650 3/31/1978 3.467 XBT
2536480 27.867 -70.650 3/31/1978 4.733 XBT
2536483 28.150 -70.650 3/31/1978 5.917 XBT
2536497 28.433 -70.650 3/31/1978 7.167 XBT
2536503 28.717 -70.650 3/31/1978 8.633 XBT
2536509 29.000 -70.650 3/31/1978 9.833 XBT
2536518 29.283 -70.650 3/31/1978 11.117 XBT
2536532 29.567 -70.650 3/31/1978 12.417 XBT
2536533 29.850 -70.650 3/31/1978 13.717 XBT
2536549 29.850 -70.000 3/31/1978 16.300 XBT
2536554 29.283 -70.000 3/31/1978 18.950 XBT
2536585 29.000 -70.000 3/31/1978 22.083 XBT
2536588 28.717 -70.000 3/31/1978 23.333 XBT
2536607 28.433 -70.000 4/1/1978 0.583 XBT
2536611 28.150 -70.000 4/1/1978 1.800 XBT
2536617 27.867 -70.000 4/1/1978 3.200 XBT
2536619 27.583 -70.000 4/1/1978 4.417 XBT
2536632 27.583 -69.667 4/1/1978 6.033 XBT
2536637 27.583 -69.350 4/1/1978 7.083 XBT
2536642 27.867 -69.350 4/1/1978 8.583 XBT
2536647 28.150 -69.350 4/1/1978 9.950 XBT
2536654 28.433 -69.350 4/1/1978 11.250 XBT
2536664 28.717 -69.350 4/1/1978 12.433 XBT
2536671 29.000 -69.350 4/1/1978 13.733 XBT
2536672 29.283 -69.350 4/1/1978 15.050 XBT
2536675 29.567 -69.350 4/1/1978 16.617 XBT
2536680 29.850 -69.350 4/1/1978 17.917 XBT
2536697 29.850 -69.033 4/1/1978 19.383 XBT
2536700 29.850 -68.717 4/1/1978 20.967 XBT
2536715 29.567 -68.717 4/1/1978 22.350 XBT
2536719 29.283 -68.717 4/1/1978 23.667 XBT
2536741 29.000 -68.717 4/2/1978 1.217 XBT
2536746 28.717 -68.717 4/2/1978 2.750 XBT
2536749 28.433 -68.717 4/2/1978 3.917 XBT
2536751 28.150 -68.717 4/2/1978 5.400 XBT
2536763 27.867 -68.717 4/2/1978 7.117 XBT
2536767 27.583 -68.717 4/2/1978 8.117 XBT
2539439 27.867 -70.967 4/20/1978 8.467 XBT
2539457 27.583 -71.283 4/20/1978 10.400 XBT
9635349 27.567 -71.317 4/20/1978 11.750 OSD
2539485 27.867 -71.283 4/20/1978 13.500 XBT
2539497 28.183 -71.267 4/20/1978 16.417 XBT
2539504 28.433 -71.283 4/20/1978 17.483 XBT
2539550 29.000 -71.283 4/20/1978 21.600 XBT
9635350 29.000 -71.283 4/20/1978 23.700 OSD
2539607 29.283 -71.283 4/21/1978 2.417 XBT
2539621 29.650 -71.233 4/21/1978 5.617 XBT
2539632 29.850 -71.283 4/21/1978 6.550 XBT
2539641 30.133 -71.283 4/21/1978 7.883 XBT
2539659 30.417 -71.283 4/21/1978 10.567 XBT
9635351 30.417 -71.300 4/21/1978 11.800 OSD
2539686 30.417 -70.967 4/21/1978 13.433 XBT
2539696 30.417 -70.650 4/21/1978 14.717 XBT
9635352 30.417 -70.650 4/21/1978 16.000 OSD
2539708 30.133 -70.650 4/21/1978 17.567 XBT
2539738 29.833 -70.650 4/21/1978 20.700 XBT
2539756 29.567 -70.650 4/21/1978 22.033 XBT
2539782 29.283 -70.650 4/22/1978 0.717 XBT
2539790 29.000 -70.650 4/22/1978 2.033 XBT
9635353 28.983 -70.650 4/22/1978 3.367 OSD
2539815 28.717 -70.650 4/22/1978 7.150 XBT
2539818 28.433 -70.650 4/22/1978 8.533 XBT
2539834 28.150 -70.650 4/22/1978 11.300 XBT
2539840 27.867 -70.650 4/22/1978 12.783 XBT
2539859 27.600 -70.650 4/22/1978 15.333 XBT
9635354 27.583 -70.650 4/22/1978 16.700 OSD
2539876 27.583 -70.317 4/22/1978 18.133 XBT
2539882 27.583 -70.000 4/22/1978 19.550 XBT
9635355 27.567 -70.000 4/22/1978 21.000 OSD
2539897 27.867 -70.000 4/22/1978 22.567 XBT
2539919 28.150 -70.000 4/23/1978 1.683 XBT
2539934 28.733 -70.000 4/23/1978 5.833 XBT
2539947 29.000 -70.000 4/23/1978 7.083 XBT
9635356 29.000 -69.967 4/23/1978 8.333 OSD
2539975 29.283 -70.000 4/23/1978 12.717 XBT
2539979 29.567 -70.000 4/23/1978 14.333 XBT
2539991 29.850 -70.000 4/23/1978 17.417 XBT
2539997 30.133 -70.000 4/23/1978 18.667 XBT
2540011 30.417 -70.000 4/23/1978 21.633 XBT
9635357 30.417 -70.000 4/23/1978 22.917 OSD
2540020 30.417 -69.683 4/24/1978 0.500 XBT
9635358 30.417 -69.350 4/24/1978 3.250 OSD
2540039 30.133 -69.350 4/24/1978 4.883 XBT
2540052 29.850 -69.350 4/24/1978 7.300 XBT
2540054 29.567 -69.350 4/24/1978 8.783 XBT
2540064 29.283 -69.350 4/24/1978 11.250 XBT
9635359 29.000 -69.350 4/24/1978 14.083 OSD
2540086 28.717 -69.350 4/24/1978 16.950 XBT
2540107 28.150 -69.350 4/24/1978 21.133 XBT
2540112 27.867 -69.350 4/24/1978 22.367 XBT
2540135 27.583 -69.350 4/25/1978 1.167 XBT
9635360 27.867 -69.350 4/25/1978 2.550 OSD
2540146 27.583 -69.033 4/25/1978 4.450 XBT
2540148 27.583 -68.717 4/25/1978 5.800 XBT
9635361 27.567 -68.700 4/25/1978 7.550 OSD
2540174 28.283 -68.717 4/25/1978 11.900 XBT
2540190 28.433 -68.717 4/25/1978 12.467 XBT
2540200 28.717 -68.717 4/25/1978 15.983 XBT
2540205 29.000 -68.717 4/25/1978 17.150 XBT
9635362 28.983 -68.700 4/25/1978 19.350 OSD
2540274 29.283 -68.717 4/26/1978 2.933 XBT
2540288 29.567 -68.717 4/26/1978 4.067 XBT
2540299 29.850 -68.717 4/26/1978 6.950 XBT
2540318 30.133 -68.717 4/26/1978 8.167 XBT
2540329 30.417 -68.717 4/26/1978 10.750 XBT
9635363 30.417 -68.717 4/26/1978 12.250 OSD
2540354 30.417 -69.033 4/26/1978 13.333 XBT
2540355 30.417 -69.350 4/26/1978 14.583 XBT
9635364 30.417 -69.350 4/26/1978 16.017 OSD
2540366 30.133 -69.350 4/26/1978 18.133 XBT
2540386 29.850 -69.350 4/26/1978 21.117 XBT
2540389 29.567 -69.350 4/26/1978 22.450 XBT
2540436 29.000 -69.350 4/27/1978 6.450 XBT
9635365 29.017 -69.350 4/27/1978 7.833 OSD
2540451 28.717 -69.350 4/27/1978 11.583 XBT
2540467 28.433 -69.350 4/27/1978 12.767 XBT
2540482 28.150 -69.350 4/27/1978 15.933 XBT
2540489 27.867 -69.350 4/27/1978 17.250 XBT
2540515 27.583 -69.350 4/27/1978 20.100 XBT
9635366 27.583 -69.350 4/27/1978 21.283 OSD
2540523 27.583 -69.683 4/27/1978 22.883 XBT
2540540 27.583 -70.000 4/28/1978 0.200 XBT
9635367 27.583 -70.000 4/28/1978 1.667 OSD
2540560 27.867 -70.000 4/28/1978 3.467 XBT
2540568 28.150 -70.000 4/28/1978 5.133 XBT
2540584 28.433 -70.000 4/28/1978 6.400 XBT
2540674 29.000 -70.000 4/29/1978 0.667 XBT
9635368 29.000 -70.000 4/29/1978 1.333 OSD
2540716 29.283 -70.000 4/29/1978 7.283 XBT
2540721 29.567 -70.000 4/29/1978 8.900 XBT
2540741 29.850 -70.000 4/29/1978 12.833 XBT
2540753 30.133 -70.000 4/29/1978 14.217 XBT
9635369 30.417 -70.000 4/29/1978 18.783 OSD
2540776 30.417 -70.317 4/29/1978 20.417 XBT
2540783 30.417 -70.650 4/29/1978 21.900 XBT
2540792 30.133 -70.650 4/29/1978 23.233 XBT
9635370 30.133 -70.650 4/30/1978 0.750 OSD
2540825 29.850 -70.650 4/30/1978 2.050 XBT
2540828 29.567 -70.650 4/30/1978 3.267 XBT
2540846 29.283 -70.650 4/30/1978 7.067 XBT
2540847 29.000 -70.650 4/30/1978 8.150 XBT
9635371 28.983 -70.650 4/30/1978 9.583 OSD
2540861 28.717 -70.650 4/30/1978 11.000 XBT
2540863 28.433 -70.650 4/30/1978 12.300 XBT
2540916 27.867 -70.967 4/30/1978 19.183 XBT
2540921 27.867 -71.283 4/30/1978 20.583 XBT
2540926 28.150 -71.283 4/30/1978 21.900 XBT
2540938 28.433 -71.283 4/30/1978 23.117 XBT
2540950 28.717 -71.283 5/1/1978 0.450 XBT
9635372 29.000 -71.283 5/1/1978 3.217 OSD
2540976 29.283 -71.283 5/1/1978 4.867 XBT
2540988 29.567 -71.283 5/1/1978 6.050 XBT
2540998 29.850 -71.283 5/1/1978 7.350 XBT
2541002 30.133 -71.283 5/1/1978 8.333 XBT
9635373 30.150 -71.283 5/1/1978 9.633 OSD
2541013 30.417 -71.283 5/1/1978 11.200 XBT
9635374 30.417 -71.283 5/1/1978 12.417 OSD
9635375 29.050 -68.717 5/11/1978 6.083 OSD
9635376 27.983 -69.350 5/11/1978 18.017 OSD
9635377 27.717 -70.000 5/14/1978 8.417 OSD
9635378 29.050 -70.033 5/15/1978 1.750 OSD
9635379 30.417 -69.967 5/15/1978 21.950 OSD
9635380 28.067 -70.667 5/17/1978 9.800 OSD
9635381 28.400 -71.300 5/17/1978 20.500 OSD
9635382 29.083 -71.317 5/18/1978 6.500 OSD
9635383 29.683 -71.267 5/18/1978 16.667 OSD
9635384 29.933 -70.617 5/20/1978 20.000 OSD
9635385 29.350 -70.667 5/21/1978 12.467 OSD